Hilo, HI

12:13 PM HST on September 29, 2016 (GMT -1000)
Hilo International

Weather History for PHTO - June, 2013

Change the Weather History Date:

Friday, June 21, 2013

  Actual Average Record
Temperature  
Mean Temperature 76 °F 75 °F  
Max Temperature 82 °F 82 °F 88 °F (1969)
Min Temperature 69 °F 68 °F 64 °F (1955)
Degree Days  
Heating Degree Days 0 0  
Month to date heating degree days 0 0  
Since 1 June heating degree days 0 0  
Since 1 July heating degree days 0 0  
Cooling Degree Days 11 10  
Month to date cooling degree days 224 210  
Year to date cooling degree days 1377 1278  
Since 1 June cooling degree days 224 210  
Growing Degree Days 26 (Base 50)    
Moisture  
Dew Point 67 °F    
Average Humidity 73    
Maximum Humidity 84    
Minimum Humidity 62    
Precipitation  
Precipitation 0.03 in 0.27 in 1.37 in (2005)
Month to date precipitation 3.08 4.87  
Year to date precipitation 50.12 56.78  
Snow  
Snow 0.00 in - - ()
Month to date snowfall 0.0  
Since 1 June snowfall 0.0  
Since 1 July snowfall 0.0  
Snow Depth 0.00 in    
Sea Level Pressure  
Sea Level Pressure 30.04 in    
Wind  
Wind Speed 6 mph (SSW)    
Max Wind Speed 18 mph    
Max Gust Speed 23 mph    
Visibility 9 miles    
Events Rain    
T = Trace of Precipitation, MM = Missing Value Source: NWS Daily Summary

Daily Weather History Graph

Daily Weather History Graph

Search for Another Location

Airport or City:

Trip Planner

Search our weather history database for the weather conditions in past years. The results will help you decide how hot, cold, wet, or windy it might be!

Date:

Astronomy

Jun. 21, 2013 Rise Set
Actual Time 5:42 AM HST 7:01 PM HST
Civil Twilight 5:17 AM HST 7:26 PM HST
Nautical Twilight 4:48 AM HST 7:55 PM HST
Astronomical Twilight 4:18 AM HST 8:25 PM HST
Moon 5:32 PM HST (6/21) 3:58 AM HST (6/21)
Length of Visible Light 14h 08m
Length of Day
13h 19m
Waxing Gibbous, 96% of the Moon is Illuminated
Jun 21
Waxing Gibbous
Jun 23
Full
Jun 29
Last Quarter
Jul 7
New
Jul 15
First Quarter

Hourly Weather History & Observations

Time (HST) Temp. Heat Index Dew Point Humidity Pressure Visibility Wind Dir Wind Speed Gust Speed Precip Events Conditions
12:45 AM 71.1 °F - 64.9 °F 81% 30.07 in 10.0 mi SW 4.6 mph - 0.03 in Rain Light Rain
12:53 AM 70.0 °F - 64.9 °F 84% 30.07 in 10.0 mi WSW 5.8 mph - 0.03 in   Mostly Cloudy
1:53 AM 70.0 °F - 64.9 °F 84% 30.05 in 10.0 mi WSW 5.8 mph - 0.00 in   Overcast
2:01 AM 70.0 °F - 64.9 °F 84% 30.05 in 10.0 mi SSE 3.5 mph - N/A   Overcast
2:42 AM 69.1 °F - 64.9 °F 87% 30.05 in 10.0 mi WSW 8.1 mph - 0.00 in Rain Light Rain
2:53 AM 69.1 °F - 64.0 °F 84% 30.04 in 10.0 mi WSW 9.2 mph - 0.00 in   Overcast
3:53 AM 69.1 °F - 64.0 °F 84% 30.03 in 10.0 mi SW 5.8 mph - N/A   Mostly Cloudy
4:53 AM 69.1 °F - 64.0 °F 84% 30.03 in 10.0 mi SW 4.6 mph - N/A   Overcast
5:53 AM 69.1 °F - 63.0 °F 81% 30.04 in 10.0 mi SSW 4.6 mph - N/A   Mostly Cloudy
6:53 AM 70.0 °F - 63.0 °F 78% 30.06 in 10.0 mi South 4.6 mph - 0.00 in   Mostly Cloudy
7:53 AM 73.0 °F - 66.0 °F 79% 30.07 in 10.0 mi East 3.5 mph - 0.00 in   Mostly Cloudy
8:53 AM 77.0 °F - 66.9 °F 71% 30.07 in 10.0 mi ENE 5.8 mph - N/A   Mostly Cloudy
9:53 AM 77.0 °F - 69.1 °F 76% 30.07 in 10.0 mi SE 5.8 mph - 0.00 in Rain Light Rain
10:53 AM 80.1 °F 82.7 °F 68.0 °F 67% 30.06 in 10.0 mi East 10.4 mph - 0.00 in   Overcast
11:53 AM 81.0 °F 83.8 °F 68.0 °F 65% 30.04 in 10.0 mi East 10.4 mph - N/A   Overcast
12:53 PM 79.0 °F - 66.0 °F 64% 30.03 in 10.0 mi SSE 8.1 mph - N/A   Overcast
1:53 PM 81.0 °F 83.0 °F 66.0 °F 60% 30.01 in 10.0 mi East 8.1 mph - N/A   Overcast
2:53 PM 78.1 °F - 66.9 °F 68% 30.01 in 10.0 mi NE 8.1 mph - N/A   Overcast
3:04 PM 75.9 °F - 68.0 °F 76% 30.02 in 10.0 mi East 16.1 mph - N/A   Overcast
3:11 PM 75.0 °F - 68.0 °F 79% 30.02 in 9.0 mi East 17.3 mph - N/A   Overcast
3:53 PM 75.0 °F - 69.1 °F 82% 30.01 in 10.0 mi North 4.6 mph - 0.00 in   Overcast
4:16 PM 73.0 °F - 69.1 °F 87% 30.01 in 4.0 mi NNW 5.8 mph - 0.00 in Rain Light Rain
4:27 PM 73.0 °F - 69.1 °F 87% 30.00 in 10.0 mi WNW 6.9 mph - 0.00 in Rain Light Rain
4:48 PM 73.4 °F - 68.0 °F 83% 30.01 in 2.5 mi Variable 5.8 mph - 0.01 in Rain Heavy Rain
4:53 PM 73.0 °F - 66.9 °F 81% 30.01 in 2.5 mi Variable 4.6 mph - 0.03 in Rain Rain
5:01 PM 73.0 °F - 68.0 °F 84% 30.01 in 6.0 mi Calm Calm - 0.01 in Rain Light Rain
5:53 PM 72.0 °F - 69.1 °F 91% 30.02 in 1.8 mi Variable 5.8 mph - 0.04 in Rain Heavy Rain
6:15 PM 73.0 °F - 69.1 °F 87% 30.03 in 10.0 mi Calm Calm - 0.07 in   Overcast
6:53 PM 72.0 °F - 69.1 °F 91% 30.04 in 10.0 mi WSW 6.9 mph - 0.07 in   Overcast
7:53 PM 73.0 °F - 69.1 °F 87% 30.05 in 10.0 mi West 4.6 mph - N/A   Overcast
8:53 PM 73.9 °F - 68.0 °F 82% 30.07 in 10.0 mi Calm Calm - 0.00 in   Overcast
9:15 PM 72.0 °F - 68.0 °F 87% 30.08 in 4.0 mi Variable 3.5 mph - 0.02 in Rain Rain
9:53 PM 72.0 °F - 68.0 °F 87% 30.09 in 10.0 mi South 5.8 mph - 0.05 in   Overcast
10:08 PM 71.1 °F - 66.9 °F 87% 30.09 in 10.0 mi WSW 4.6 mph - N/A   Overcast
10:53 PM 71.1 °F - 66.9 °F 87% 30.09 in 10.0 mi SW 3.5 mph - N/A   Overcast
11:53 PM 71.1 °F - 66.9 °F 87% 30.08 in 10.0 mi SW 4.6 mph - N/A   Scattered Clouds